Year,Month,Day,Hour,Minute,Value (Times are PST for temperature in C)
2014,06,24,00,00,14.60
2014,06,24,00,01,14.60
2014,06,24,00,02,14.60
2014,06,24,00,03,14.60
2014,06,24,00,04,14.60
2014,06,24,00,05,14.60
2014,06,24,00,06,14.60
2014,06,24,00,07,14.60
2014,06,24,00,08,14.60
2014,06,24,00,09,14.60
2014,06,24,00,10,14.50
2014,06,24,00,11,14.50
2014,06,24,00,12,14.50
2014,06,24,00,13,14.50
2014,06,24,00,14,14.50
2014,06,24,00,15,14.50
2014,06,24,00,16,14.50
2014,06,24,00,17,14.40
2014,06,24,00,18,14.40
2014,06,24,00,19,14.40
2014,06,24,00,20,14.40
2014,06,24,00,21,14.40
2014,06,24,00,22,14.40
2014,06,24,00,23,14.40
2014,06,24,00,24,14.40
2014,06,24,00,25,14.40
2014,06,24,00,26,14.40
2014,06,24,00,27,14.40
2014,06,24,00,28,14.40
2014,06,24,00,29,14.40
2014,06,24,00,30,14.40
2014,06,24,00,31,14.40
2014,06,24,00,32,14.40
2014,06,24,00,33,14.40
2014,06,24,00,34,14.40
2014,06,24,00,35,14.40
2014,06,24,00,36,14.40
2014,06,24,00,37,14.40
2014,06,24,00,38,14.40
2014,06,24,00,39,14.40
2014,06,24,00,40,14.40
2014,06,24,00,41,14.40
2014,06,24,00,42,14.40
2014,06,24,00,43,14.40
2014,06,24,00,44,14.40
2014,06,24,00,45,14.40
2014,06,24,00,46,14.40
2014,06,24,00,47,14.40
2014,06,24,00,48,14.40
2014,06,24,00,49,14.30
2014,06,24,00,50,14.30
2014,06,24,00,51,14.30
2014,06,24,00,52,14.30
2014,06,24,00,53,14.30
2014,06,24,00,54,14.30
2014,06,24,00,55,14.30
2014,06,24,00,56,14.30
2014,06,24,00,57,14.30
2014,06,24,00,58,14.30
2014,06,24,00,59,14.30
2014,06,24,01,00,14.30
2014,06,24,01,01,14.40
2014,06,24,01,02,14.40
2014,06,24,01,03,14.40
2014,06,24,01,04,14.40
2014,06,24,01,05,14.40
2014,06,24,01,06,14.40
2014,06,24,01,07,14.30
2014,06,24,01,08,14.40
2014,06,24,01,09,14.30
2014,06,24,01,10,14.40
2014,06,24,01,11,14.40
2014,06,24,01,12,14.40
2014,06,24,01,13,14.40
2014,06,24,01,14,14.40
2014,06,24,01,15,14.40
2014,06,24,01,16,14.40
2014,06,24,01,17,14.40
2014,06,24,01,18,14.40
2014,06,24,01,19,14.40
2014,06,24,01,20,14.40
2014,06,24,01,21,14.40
2014,06,24,01,22,14.40
2014,06,24,01,23,14.40
2014,06,24,01,24,14.40
2014,06,24,01,25,14.40
2014,06,24,01,26,14.30
2014,06,24,01,27,14.30
2014,06,24,01,28,14.30
2014,06,24,01,29,14.30
2014,06,24,01,30,14.30
2014,06,24,01,31,14.30
2014,06,24,01,32,14.30
2014,06,24,01,33,14.30
2014,06,24,01,34,14.30
2014,06,24,01,35,14.30
2014,06,24,01,36,14.30
2014,06,24,01,37,14.30
2014,06,24,01,38,14.30
2014,06,24,01,39,14.30
2014,06,24,01,40,14.30
2014,06,24,01,41,14.30
2014,06,24,01,42,14.30
2014,06,24,01,43,14.30
2014,06,24,01,44,14.30
2014,06,24,01,45,14.30
2014,06,24,01,46,14.30
2014,06,24,01,47,14.30
2014,06,24,01,48,14.30
2014,06,24,01,49,14.30
2014,06,24,01,50,14.30
2014,06,24,01,51,14.30
2014,06,24,01,52,14.30
2014,06,24,01,53,14.30
2014,06,24,01,54,14.30
2014,06,24,01,55,14.30
2014,06,24,01,56,14.30
2014,06,24,01,57,14.30
2014,06,24,01,58,14.30
2014,06,24,01,59,14.30
2014,06,24,02,00,14.30
2014,06,24,02,01,14.30
2014,06,24,02,02,14.30
2014,06,24,02,03,14.30
2014,06,24,02,04,14.30
2014,06,24,02,05,14.30
2014,06,24,02,06,14.30
2014,06,24,02,07,14.30
2014,06,24,02,08,14.30
2014,06,24,02,09,14.30
2014,06,24,02,10,14.30
2014,06,24,02,11,14.30
2014,06,24,02,12,14.30
2014,06,24,02,13,14.30
2014,06,24,02,14,14.30
2014,06,24,02,15,14.30
2014,06,24,02,16,14.30
2014,06,24,02,17,14.30
2014,06,24,02,18,14.30
2014,06,24,02,19,14.30
2014,06,24,02,20,14.30
2014,06,24,02,21,14.30
2014,06,24,02,22,14.30
2014,06,24,02,23,14.30
2014,06,24,02,24,14.20
2014,06,24,02,25,14.20
2014,06,24,02,26,14.20
2014,06,24,02,27,14.20
2014,06,24,02,28,14.20
2014,06,24,02,29,14.20
2014,06,24,02,30,14.20
2014,06,24,02,31,14.20
2014,06,24,02,32,14.20
2014,06,24,02,33,14.20
2014,06,24,02,34,14.20
2014,06,24,02,35,14.20
2014,06,24,02,36,14.20
2014,06,24,02,37,14.20
2014,06,24,02,38,14.20
2014,06,24,02,39,14.20
2014,06,24,02,40,14.20
2014,06,24,02,41,14.20
2014,06,24,02,42,14.20
2014,06,24,02,43,14.20
2014,06,24,02,44,14.20
2014,06,24,02,45,14.20
2014,06,24,02,46,14.20
2014,06,24,02,47,14.20
2014,06,24,02,48,14.20
2014,06,24,02,49,14.20
2014,06,24,02,50,14.20
2014,06,24,02,51,14.20
2014,06,24,02,52,14.20
2014,06,24,02,53,14.20
2014,06,24,02,54,14.20
2014,06,24,02,55,14.20
2014,06,24,02,56,14.20
2014,06,24,02,57,14.20
2014,06,24,02,58,14.20
2014,06,24,02,59,14.20
2014,06,24,03,00,14.20
2014,06,24,03,01,14.20
2014,06,24,03,02,14.20
2014,06,24,03,03,14.20
2014,06,24,03,04,14.20
2014,06,24,03,05,14.20
2014,06,24,03,06,14.20
2014,06,24,03,07,14.20
2014,06,24,03,08,14.20
2014,06,24,03,09,14.20
2014,06,24,03,10,14.20
2014,06,24,03,11,14.20
2014,06,24,03,12,14.30
2014,06,24,03,13,14.30
2014,06,24,03,14,14.30
2014,06,24,03,15,14.30
2014,06,24,03,16,14.30
2014,06,24,03,17,14.30
2014,06,24,03,18,14.30
2014,06,24,03,19,14.30
2014,06,24,03,20,14.30
2014,06,24,03,21,14.30
2014,06,24,03,22,14.30
2014,06,24,03,23,14.30
2014,06,24,03,24,14.30
2014,06,24,03,25,14.30
2014,06,24,03,26,14.30
2014,06,24,03,27,14.20
2014,06,24,03,28,14.20
2014,06,24,03,29,14.20
2014,06,24,03,30,14.20
2014,06,24,03,31,14.20
2014,06,24,03,32,14.20
2014,06,24,03,33,14.20
2014,06,24,03,34,14.20
2014,06,24,03,35,14.20
2014,06,24,03,36,14.20
2014,06,24,03,37,14.20
2014,06,24,03,38,14.20
2014,06,24,03,39,14.20
2014,06,24,03,40,14.20
2014,06,24,03,41,14.20
2014,06,24,03,42,14.20
2014,06,24,03,43,14.20
2014,06,24,03,44,14.20
2014,06,24,03,45,14.20
2014,06,24,03,46,14.20
2014,06,24,03,47,14.20
2014,06,24,03,48,14.20
2014,06,24,03,49,14.20
2014,06,24,03,50,14.20
2014,06,24,03,51,14.10
2014,06,24,03,52,14.10
2014,06,24,03,53,14.10
2014,06,24,03,54,14.10
2014,06,24,03,55,14.10
2014,06,24,03,56,14.10
2014,06,24,03,57,14.10
2014,06,24,03,58,14.10
2014,06,24,03,59,14.10
2014,06,24,04,00,14.10
2014,06,24,04,01,14.10
2014,06,24,04,02,14.10
2014,06,24,04,03,14.10
2014,06,24,04,04,14.10
2014,06,24,04,05,14.10
2014,06,24,04,06,14.10
2014,06,24,04,07,14.10
2014,06,24,04,08,14.10
2014,06,24,04,09,14.10
2014,06,24,04,10,14.10
2014,06,24,04,11,14.10
2014,06,24,04,12,14.10
2014,06,24,04,13,14.10
2014,06,24,04,14,14.10
2014,06,24,04,15,14.10
2014,06,24,04,16,14.10
2014,06,24,04,17,14.10
2014,06,24,04,18,14.10
2014,06,24,04,19,14.00
2014,06,24,04,20,14.00
2014,06,24,04,21,14.00
2014,06,24,04,22,14.00
2014,06,24,04,23,14.00
2014,06,24,04,24,14.00
2014,06,24,04,25,14.00
2014,06,24,04,26,14.00
2014,06,24,04,27,14.00
2014,06,24,04,28,13.90
2014,06,24,04,29,13.90
2014,06,24,04,30,13.90
2014,06,24,04,31,13.90
2014,06,24,04,32,13.90
2014,06,24,04,33,13.90
2014,06,24,04,34,13.80
2014,06,24,04,35,13.80
2014,06,24,04,36,13.80
2014,06,24,04,37,13.80
2014,06,24,04,38,13.80
2014,06,24,04,39,13.80
2014,06,24,04,40,13.80
2014,06,24,04,41,13.80
2014,06,24,04,42,13.80
2014,06,24,04,43,13.80
2014,06,24,04,44,13.80
2014,06,24,04,45,13.80
2014,06,24,04,46,13.80
2014,06,24,04,47,13.70
2014,06,24,04,48,13.70
2014,06,24,04,49,13.70
2014,06,24,04,50,13.70
2014,06,24,04,51,13.70
2014,06,24,04,52,13.70
2014,06,24,04,53,13.70
2014,06,24,04,54,13.70
2014,06,24,04,55,13.60
2014,06,24,04,56,13.60
2014,06,24,04,57,13.60
2014,06,24,04,58,13.60
2014,06,24,04,59,13.60
2014,06,24,05,00,13.60
2014,06,24,05,01,13.50
2014,06,24,05,02,13.50
2014,06,24,05,03,13.50
2014,06,24,05,04,13.50
2014,06,24,05,05,13.50
2014,06,24,05,06,13.40
2014,06,24,05,07,13.40
2014,06,24,05,08,13.40
2014,06,24,05,09,13.40
2014,06,24,05,10,13.40
2014,06,24,05,11,13.40
2014,06,24,05,12,13.40
2014,06,24,05,13,13.40
2014,06,24,05,14,13.40
2014,06,24,05,15,13.40
2014,06,24,05,16,13.40
2014,06,24,05,17,13.40
2014,06,24,05,18,13.40
2014,06,24,05,19,13.40
2014,06,24,05,20,13.40
2014,06,24,05,21,13.30
2014,06,24,05,22,13.30
2014,06,24,05,23,13.40
2014,06,24,05,24,13.40
2014,06,24,05,25,13.40
2014,06,24,05,26,13.40
2014,06,24,05,27,13.40
2014,06,24,05,28,13.30
2014,06,24,05,29,13.30
2014,06,24,05,30,13.30
2014,06,24,05,31,13.30
2014,06,24,05,32,13.30
2014,06,24,05,33,13.30
2014,06,24,05,34,13.30
2014,06,24,05,35,13.30
2014,06,24,05,36,13.30
2014,06,24,05,37,13.30
2014,06,24,05,38,13.30
2014,06,24,05,39,13.30
2014,06,24,05,40,13.30
2014,06,24,05,41,13.30
2014,06,24,05,42,13.30
2014,06,24,05,43,13.30
2014,06,24,05,44,13.30
2014,06,24,05,45,13.20
2014,06,24,05,46,13.20
2014,06,24,05,47,13.20
2014,06,24,05,48,13.20
2014,06,24,05,49,13.20
2014,06,24,05,50,13.20
2014,06,24,05,51,13.20
2014,06,24,05,52,13.30
2014,06,24,05,53,13.30
2014,06,24,05,54,13.30
2014,06,24,05,55,13.30
2014,06,24,05,56,13.30
2014,06,24,05,57,13.30
2014,06,24,05,58,13.30
2014,06,24,05,59,13.30
2014,06,24,06,00,13.30
2014,06,24,06,01,13.30
2014,06,24,06,02,13.30
2014,06,24,06,03,13.40
2014,06,24,06,04,13.40
2014,06,24,06,05,13.40
2014,06,24,06,06,13.40
2014,06,24,06,07,13.40
2014,06,24,06,08,13.40
2014,06,24,06,09,13.40
2014,06,24,06,10,13.40
2014,06,24,06,11,13.50
2014,06,24,06,12,13.50
2014,06,24,06,13,13.50
2014,06,24,06,14,13.60
2014,06,24,06,15,13.60
2014,06,24,06,16,13.60
2014,06,24,06,17,13.70
2014,06,24,06,18,13.70
2014,06,24,06,19,13.70
2014,06,24,06,20,13.70
2014,06,24,06,21,13.70
2014,06,24,06,22,13.70
2014,06,24,06,23,13.80
2014,06,24,06,24,13.80
2014,06,24,06,25,13.80
2014,06,24,06,26,13.80
2014,06,24,06,27,13.80
2014,06,24,06,28,13.80
2014,06,24,06,29,13.80
2014,06,24,06,30,13.80
2014,06,24,06,31,13.90
2014,06,24,06,32,13.90
2014,06,24,06,33,13.90
2014,06,24,06,34,13.90
2014,06,24,06,35,13.90
2014,06,24,06,36,13.90
2014,06,24,06,37,14.00
2014,06,24,06,38,14.00
2014,06,24,06,39,14.00
2014,06,24,06,40,14.00
2014,06,24,06,41,14.00
2014,06,24,06,42,14.10
2014,06,24,06,43,14.10
2014,06,24,06,44,14.10
2014,06,24,06,45,14.10
2014,06,24,06,46,14.10
2014,06,24,06,47,14.10
2014,06,24,06,48,14.10
2014,06,24,06,49,14.20
2014,06,24,06,50,14.20
2014,06,24,06,51,14.20
2014,06,24,06,52,14.20
2014,06,24,06,53,14.20
2014,06,24,06,54,14.20
2014,06,24,06,55,14.20
2014,06,24,06,56,14.20
2014,06,24,06,57,14.20
2014,06,24,06,58,14.20
2014,06,24,06,59,14.20
2014,06,24,07,00,14.20
2014,06,24,07,01,14.20
2014,06,24,07,02,14.20
2014,06,24,07,03,14.20
2014,06,24,07,04,14.20
2014,06,24,07,05,14.20
2014,06,24,07,06,14.20
2014,06,24,07,07,14.20
2014,06,24,07,08,14.20
2014,06,24,07,09,14.20
2014,06,24,07,10,14.20
2014,06,24,07,11,14.30
2014,06,24,07,12,14.30
2014,06,24,07,13,14.30
2014,06,24,07,14,14.30
2014,06,24,07,15,14.30
2014,06,24,07,16,14.30
2014,06,24,07,17,14.30
2014,06,24,07,18,14.40
2014,06,24,07,19,14.40
2014,06,24,07,20,14.40
2014,06,24,07,21,14.40
2014,06,24,07,22,14.40
2014,06,24,07,23,14.40
2014,06,24,07,24,14.50
2014,06,24,07,25,14.50
2014,06,24,07,26,14.50
2014,06,24,07,27,14.50
2014,06,24,07,28,14.60
2014,06,24,07,29,14.60
2014,06,24,07,30,14.60
2014,06,24,07,31,14.60
2014,06,24,07,32,14.50
2014,06,24,07,33,14.50
2014,06,24,07,34,14.60
2014,06,24,07,35,14.60
2014,06,24,07,36,14.60
2014,06,24,07,37,14.60
2014,06,24,07,38,14.60
2014,06,24,07,39,14.60
2014,06,24,07,40,14.70
2014,06,24,07,41,14.70
2014,06,24,07,42,14.70
2014,06,24,07,43,14.70
2014,06,24,07,44,14.80
2014,06,24,07,45,14.80
2014,06,24,07,46,14.80
2014,06,24,07,47,14.80
2014,06,24,07,48,14.90
2014,06,24,07,49,14.90
2014,06,24,07,50,15.00
2014,06,24,07,51,15.00
2014,06,24,07,52,15.00
2014,06,24,07,53,15.10
2014,06,24,07,54,15.10
2014,06,24,07,55,15.10
2014,06,24,07,56,15.10
2014,06,24,07,57,15.10
2014,06,24,07,58,15.10
2014,06,24,07,59,15.00
2014,06,24,08,00,15.00
2014,06,24,08,01,15.00
2014,06,24,08,02,15.00
2014,06,24,08,03,15.00
2014,06,24,08,04,15.10
2014,06,24,08,05,15.10
2014,06,24,08,06,15.10
2014,06,24,08,07,15.20
2014,06,24,08,08,15.20
2014,06,24,08,09,15.20
2014,06,24,08,10,15.30
2014,06,24,08,11,15.30
2014,06,24,08,12,15.40
2014,06,24,08,13,15.40
2014,06,24,08,14,15.50
2014,06,24,08,15,15.50
2014,06,24,08,16,15.50
2014,06,24,08,17,15.60
2014,06,24,08,18,15.60
2014,06,24,08,19,15.60
2014,06,24,08,20,15.60
2014,06,24,08,21,15.70
2014,06,24,08,22,15.70
2014,06,24,08,23,15.70
2014,06,24,08,24,15.80
2014,06,24,08,25,15.80
2014,06,24,08,26,15.80
2014,06,24,08,27,15.80
2014,06,24,08,28,15.80
2014,06,24,08,29,15.80
2014,06,24,08,30,15.80
2014,06,24,08,31,15.80
2014,06,24,08,32,15.80
2014,06,24,08,33,15.80
2014,06,24,08,34,15.80
2014,06,24,08,35,15.80
2014,06,24,08,36,15.80
2014,06,24,08,37,15.80
2014,06,24,08,38,15.90
2014,06,24,08,39,15.90
2014,06,24,08,40,15.80
2014,06,24,08,41,15.80
2014,06,24,08,42,15.80
2014,06,24,08,43,15.80
2014,06,24,08,44,15.80
2014,06,24,08,45,15.80
2014,06,24,08,46,15.80
2014,06,24,08,47,15.80
2014,06,24,08,48,15.80
2014,06,24,08,49,15.80
2014,06,24,08,50,15.90
2014,06,24,08,51,15.90
2014,06,24,08,52,15.90
2014,06,24,08,53,15.90
2014,06,24,08,54,15.90
2014,06,24,08,55,15.90
2014,06,24,08,56,15.90
2014,06,24,08,57,15.90
2014,06,24,08,58,15.90
2014,06,24,08,59,15.90
2014,06,24,09,00,15.80
2014,06,24,09,01,15.80
2014,06,24,09,02,15.80
2014,06,24,09,03,15.80
2014,06,24,09,04,15.80
2014,06,24,09,05,15.80
2014,06,24,09,06,15.80
2014,06,24,09,07,15.80
2014,06,24,09,08,15.80
2014,06,24,09,09,15.80
2014,06,24,09,10,15.80
2014,06,24,09,11,15.80
2014,06,24,09,12,15.80
2014,06,24,09,13,15.80
2014,06,24,09,14,15.80
2014,06,24,09,15,15.80
2014,06,24,09,16,15.80
2014,06,24,09,17,15.80
2014,06,24,09,18,15.80
2014,06,24,09,19,15.80
2014,06,24,09,20,15.80
2014,06,24,09,21,15.80
2014,06,24,09,22,15.80
2014,06,24,09,23,15.80
2014,06,24,09,24,15.80
2014,06,24,09,25,15.80
2014,06,24,09,26,15.80
2014,06,24,09,27,15.80
2014,06,24,09,28,15.80
2014,06,24,09,29,15.80
2014,06,24,09,30,15.80
2014,06,24,09,31,15.90
2014,06,24,09,32,15.90
2014,06,24,09,33,15.90
2014,06,24,09,34,15.90
2014,06,24,09,35,15.90
2014,06,24,09,36,15.90
2014,06,24,09,37,15.90
2014,06,24,09,38,15.80
2014,06,24,09,39,15.80
2014,06,24,09,40,15.80
2014,06,24,09,41,15.80
2014,06,24,09,42,15.80
2014,06,24,09,43,15.80
2014,06,24,09,44,15.80
2014,06,24,09,45,15.80
2014,06,24,09,46,15.80
2014,06,24,09,47,15.80
2014,06,24,09,48,15.70
2014,06,24,09,49,15.70
2014,06,24,09,50,15.70
2014,06,24,09,51,15.70
2014,06,24,09,52,15.80
2014,06,24,09,53,15.80
2014,06,24,09,54,15.80
2014,06,24,09,55,15.80
2014,06,24,09,56,15.80
2014,06,24,09,57,15.80
2014,06,24,09,58,15.80
2014,06,24,09,59,15.90
2014,06,24,10,00,15.90
2014,06,24,10,01,15.90
2014,06,24,10,02,16.00
2014,06,24,10,03,16.00
2014,06,24,10,04,16.00
2014,06,24,10,05,16.10
2014,06,24,10,06,16.10
2014,06,24,10,07,16.10
2014,06,24,10,08,16.10
2014,06,24,10,09,16.10
2014,06,24,10,10,16.10
2014,06,24,10,11,16.10
2014,06,24,10,12,16.10
2014,06,24,10,13,16.10
2014,06,24,10,14,16.10
2014,06,24,10,15,16.10
2014,06,24,10,16,16.10
2014,06,24,10,17,16.20
2014,06,24,10,18,16.20
2014,06,24,10,19,16.30
2014,06,24,10,20,16.30
2014,06,24,10,21,16.30
2014,06,24,10,22,16.30
2014,06,24,10,23,16.30
2014,06,24,10,24,16.30
2014,06,24,10,25,16.30
2014,06,24,10,26,16.30
2014,06,24,10,27,16.30
2014,06,24,10,28,16.30
